Terminal Aerodrome Forecast
Issued by NWS

Home | Current Version | Previous Version | Graphics & Text | Print | Product List | Glossary On
Versions: 1 2 3 4 5 6 7 8 9 10 11 12 13 14 15 16 17 18 19 20 21 22 23 24 25
000
FTUS43 KOAX 270530
TAFCDR
TAF
KCDR 270530Z 2706/2806 35003KT 3SM BR BKN004 OVC020
     FM270900 33007KT P6SM OVC015
     FM271500 33013KT P6SM -SHRA BKN025
     FM271800 35014G23KT 4SM -SHRA BKN010 OVC040
     FM280300 36008KT 2SM BR OVC007=

USA.gov is the U.S. government's official web portal to all federal, state and local government web resources and services.